TimeMDT,TemperatureF,Dew PointF,Humidity,Sea Level PressureIn,VisibilityMPH,Wind Direction,Wind SpeedMPH,Gust SpeedMPH,PrecipitationIn,Events,Conditions,WindDirDegrees,DateUTC
12:53 AM,39.9,32.0,73,30.11,10.0,Calm,Calm,-,N/A,,Clear,0,2012-10-02 06:53:00
1:53 AM,37.0,32.0,82,30.12,10.0,Calm,Calm,-,N/A,,Clear,0,2012-10-02 07:53:00
2:53 AM,34.0,30.9,89,30.12,10.0,Calm,Calm,-,N/A,,Clear,0,2012-10-02 08:53:00
3:53 AM,34.0,30.9,89,30.11,10.0,Calm,Calm,-,N/A,,Clear,0,2012-10-02 09:53:00
4:53 AM,35.1,30.0,82,30.11,10.0,Calm,Calm,-,N/A,,Clear,0,2012-10-02 10:53:00
5:53 AM,33.8,30.2,87,30.22,10.0,Calm,Calm,-,N/A,,Clear,0,2012-10-02 11:53:00
6:53 AM,32.0,28.0,85,30.17,10.0,Calm,Calm,-,N/A,,Clear,0,2012-10-02 12:53:00
7:53 AM,34.0,30.0,85,30.19,10.0,Calm,Calm,-,N/A,,Clear,0,2012-10-02 13:53:00
8:53 AM,44.1,33.1,65,30.16,10.0,Calm,Calm,-,N/A,,Clear,0,2012-10-02 14:53:00
9:53 AM,54.0,35.1,49,30.13,10.0,Calm,Calm,-,N/A,,Clear,0,2012-10-02 15:53:00
10:53 AM,64.0,32.0,30,30.07,10.0,NE,4.6,-,N/A,,Clear,40,2012-10-02 16:53:00
11:53 AM,68.0,32.0,26,30.04,10.0,WNW,4.6,-,N/A,,Clear,290,2012-10-02 17:53:00
12:53 PM,73.0,28.9,20,29.99,10.0,WSW,11.5,-,N/A,,Clear,250,2012-10-02 18:53:00
1:53 PM,73.0,25.0,17,29.97,10.0,WSW,8.1,-,N/A,,Clear,250,2012-10-02 19:53:00
2:53 PM,77.0,24.1,14,29.94,10.0,NW,12.7,-,N/A,,Clear,310,2012-10-02 20:53:00
3:53 PM,77.0,24.1,14,29.92,10.0,West,11.5,-,N/A,,Clear,270,2012-10-02 21:53:00
4:53 PM,75.9,23.0,14,29.91,10.0,West,11.5,-,N/A,,Clear,280,2012-10-02 22:53:00
5:53 PM,73.4,21.2,14,30.03,10.0,West,9.2,-,N/A,,Clear,280,2012-10-02 23:53:00
6:53 PM,62.1,25.0,24,29.96,10.0,West,8.1,-,N/A,,Clear,260,2012-10-03 00:53:00
7:53 PM,55.0,27.0,34,29.99,10.0,Calm,Calm,-,N/A,,Clear,0,2012-10-03 01:53:00
8:53 PM,51.8,35.6,54,30.05,10.0,Calm,Calm,-,N/A,,Clear,0,2012-10-03 02:53:00
9:53 PM,50.0,27.0,41,29.95,10.0,Calm,Calm,-,N/A,,Clear,0,2012-10-03 03:53:00
10:53 PM,48.0,28.9,48,29.95,10.0,SE,3.5,-,N/A,,Clear,140,2012-10-03 04:53:00
11:53 PM,43.0,33.1,68,29.94,10.0,ESE,4.6,-,N/A,,Clear,120,2012-10-03 05:53:00